UAL155 PTSA-PKWA

Flight info

Callsign UAL155
Flight time 0h 57m
Altitude 37000
Route UKS STEFF
Aircraft B38M/M-SDE1FGHILORVWXY/HB1

Departure

Time 2026-04-21 15:38
Airport Kosrae International Airport (PTSA)

Arrival

Time 2026-04-21 16:35
Airport Bucholz Army Air Field (PKWA)
Time Latitude Longitude Altitude Speed Heading
2026-04-21 15:13 5.35316 162.95540 30 ft 0 kts 112°
2026-04-21 15:34 5.35318 162.95550 30 ft 2 kts 56°
2026-04-21 15:34 5.35357 162.95560 30 ft 9 kts
2026-04-21 15:34 5.35425 162.95539 31 ft 12 kts 342°
2026-04-21 15:35 5.35517 162.95579 31 ft 22 kts 56°
2026-04-21 15:35 5.35618 162.95728 29 ft 28 kts 56°
2026-04-21 15:35 5.35735 162.95893 31 ft 30 kts 54°
2026-04-21 15:35 5.35853 162.96068 32 ft 32 kts 56°
2026-04-21 15:36 5.35984 162.96265 32 ft 34 kts 56°
2026-04-21 15:36 5.36076 162.96421 32 ft 17 kts 77°
2026-04-21 15:36 5.36127 162.96482 32 ft 8 kts 340°
2026-04-21 15:36 5.36124 162.96441 32 ft 10 kts 207°
2026-04-21 15:37 5.36079 162.96402 32 ft 0 kts 234°
2026-04-21 15:37 5.36078 162.96401 32 ft 2 kts 234°
2026-04-21 15:37 5.35995 162.96284 32 ft 60 kts 235°
2026-04-21 15:37 5.35422 162.95438 44 ft 154 kts 236°
2026-04-21 15:38 5.34772 162.94487 490 ft 177 kts 236°
2026-04-21 15:38 5.34053 162.93423 1197 ft 188 kts 236°
2026-04-21 15:38 5.33327 162.92311 2092 ft 191 kts 236°
2026-04-21 15:38 5.32862 162.91562 2837 ft 184 kts 243°
2026-04-21 15:39 5.32668 162.90263 3540 ft 205 kts 276°
2026-04-21 15:39 5.33309 162.88896 4025 ft 240 kts 308°
2026-04-21 15:39 5.34749 162.87926 4796 ft 254 kts 341°
2026-04-21 15:39 5.36556 162.87760 5655 ft 272 kts
2026-04-21 15:40 5.38366 162.88455 6375 ft 287 kts 36°
2026-04-21 15:40 5.39760 162.89910 7349 ft 287 kts 56°
2026-04-21 15:40 5.40889 162.91553 8268 ft 293 kts 57°
2026-04-21 15:40 5.42049 162.93249 9235 ft 297 kts 56°
2026-04-21 15:41 5.43217 162.94964 10185 ft 300 kts 57°
2026-04-21 15:41 5.44428 162.96747 10738 ft 319 kts 57°
2026-04-21 15:41 5.45708 162.98634 11250 ft 335 kts 57°
2026-04-21 15:41 5.47039 163.00593 11918 ft 343 kts 57°
2026-04-21 15:42 5.48386 163.02579 12828 ft 346 kts 57°
2026-04-21 15:42 5.49751 163.04593 13634 ft 351 kts 57°
2026-04-21 15:42 5.51131 163.06627 14433 ft 354 kts 57°
2026-04-21 15:42 5.52526 163.08684 15347 ft 357 kts 56°
2026-04-21 15:43 5.53916 163.10741 16608 ft 357 kts 58°
2026-04-21 15:43 5.55332 163.12836 17347 ft 369 kts 57°
2026-04-21 15:43 5.56794 163.14987 18093 ft 374 kts 57°
2026-04-21 15:43 5.58264 163.17153 18754 ft 377 kts 56°
2026-04-21 15:44 5.59745 163.19338 19452 ft 380 kts 57°
2026-04-21 15:44 5.61238 163.21542 20024 ft 384 kts 57°
2026-04-21 15:44 5.62745 163.23766 20584 ft 386 kts 57°
2026-04-21 15:44 5.64262 163.26007 21134 ft 389 kts 57°
2026-04-21 15:45 5.65789 163.28261 21669 ft 392 kts 57°
2026-04-21 15:45 5.67329 163.30536 22214 ft 395 kts 57°
2026-04-21 15:45 5.68880 163.32826 22729 ft 398 kts 57°
2026-04-21 15:45 5.70441 163.35131 23249 ft 401 kts 56°
2026-04-21 15:46 5.72014 163.37454 23689 ft 404 kts 56°
2026-04-21 15:46 5.73598 163.39795 24110 ft 406 kts 57°
2026-04-21 15:46 5.75187 163.42144 24558 ft 408 kts 56°
2026-04-21 15:46 5.76789 163.44510 24962 ft 411 kts 56°
2026-04-21 15:47 5.78399 163.46890 25408 ft 413 kts 56°
2026-04-21 15:47 5.80019 163.49284 25797 ft 416 kts 56°
2026-04-21 15:47 5.81647 163.51691 26232 ft 418 kts 56°
2026-04-21 15:47 5.83261 163.54077 26626 ft 420 kts 56°
2026-04-21 15:48 5.84911 163.56517 27024 ft 423 kts 56°
2026-04-21 15:48 5.86566 163.58963 27440 ft 425 kts 56°
2026-04-21 15:48 5.88234 163.61431 27807 ft 428 kts 56°
2026-04-21 15:48 5.89907 163.63906 28225 ft 430 kts 56°
2026-04-21 15:49 5.91594 163.66402 28565 ft 434 kts 56°
2026-04-21 15:49 5.93291 163.68913 28945 ft 436 kts 56°
2026-04-21 15:49 5.95001 163.71442 29279 ft 439 kts 56°
2026-04-21 15:49 5.96721 163.73988 29674 ft 441 kts 56°
2026-04-21 15:50 5.98446 163.76542 29991 ft 444 kts 56°
2026-04-21 15:50 6.00185 163.79116 30297 ft 446 kts 56°
2026-04-21 15:50 6.01928 163.81697 30593 ft 448 kts 55°
2026-04-21 15:50 6.03684 163.84296 30879 ft 450 kts 56°
2026-04-21 15:51 6.05445 163.86905 31181 ft 452 kts 55°
2026-04-21 15:51 6.07217 163.89530 31466 ft 455 kts 55°
2026-04-21 15:51 6.08994 163.92163 31760 ft 457 kts 55°
2026-04-21 15:51 6.10782 163.94811 32023 ft 459 kts 55°
2026-04-21 15:52 6.12576 163.97470 32317 ft 461 kts 55°
2026-04-21 15:52 6.14380 164.00143 32556 ft 463 kts 55°
2026-04-21 15:52 6.16190 164.02825 32874 ft 464 kts 55°
2026-04-21 15:52 6.18005 164.05515 33152 ft 466 kts 54°
2026-04-21 15:53 6.19826 164.08216 33486 ft 467 kts 54°
2026-04-21 15:53 6.21647 164.10916 33854 ft 466 kts 54°
2026-04-21 15:53 6.23440 164.13576 34169 ft 466 kts 54°
2026-04-21 15:53 6.25278 164.16304 34478 ft 466 kts 54°
2026-04-21 15:54 6.27095 164.18999 34808 ft 465 kts 54°
2026-04-21 15:54 6.28906 164.21685 35128 ft 464 kts 54°
2026-04-21 15:54 6.30690 164.24334 35429 ft 464 kts 55°
2026-04-21 15:54 6.32502 164.27022 35740 ft 464 kts 55°
2026-04-21 15:55 6.34311 164.29707 36039 ft 464 kts 55°
2026-04-21 15:55 6.36118 164.32390 36338 ft 464 kts 55°
2026-04-21 15:55 6.37926 164.35075 36633 ft 463 kts 55°
2026-04-21 15:55 6.39736 164.37763 36859 ft 465 kts 54°
2026-04-21 15:56 6.43352 164.43134 36872 ft 462 kts 54°
2026-04-21 15:56 6.46952 164.48483 36867 ft 462 kts 54°
2026-04-21 15:57 6.50555 164.53838 36868 ft 462 kts 54°
2026-04-21 15:57 6.54160 164.59197 36864 ft 462 kts 54°
2026-04-21 15:58 6.57761 164.64551 36865 ft 462 kts 54°
2026-04-21 15:58 6.61362 164.69908 36869 ft 462 kts 55°
2026-04-21 15:59 6.64969 164.75275 36869 ft 463 kts 55°
2026-04-21 15:59 6.68575 164.80643 36864 ft 463 kts 55°
2026-04-21 16:00 6.72182 164.86014 36866 ft 463 kts 55°
2026-04-21 16:00 6.75790 164.91388 36869 ft 463 kts 55°
2026-04-21 16:01 6.79396 164.96761 36867 ft 463 kts 55°
2026-04-21 16:01 6.82978 165.02099 36874 ft 463 kts 55°
2026-04-21 16:02 6.86585 165.07476 36875 ft 463 kts 54°
2026-04-21 16:02 6.90189 165.12851 36871 ft 463 kts 54°
2026-04-21 16:03 6.93792 165.18225 36871 ft 463 kts 54°
2026-04-21 16:03 6.97396 165.23603 36869 ft 463 kts 54°
2026-04-21 16:04 7.01202 165.28824 36876 ft 463 kts 51°
2026-04-21 16:04 7.05046 165.34030 36867 ft 463 kts 51°
2026-04-21 16:05 7.08882 165.39241 36867 ft 463 kts 51°
2026-04-21 16:05 7.12719 165.44455 36869 ft 463 kts 51°
2026-04-21 16:06 7.16528 165.49633 36870 ft 463 kts 51°
2026-04-21 16:06 7.20364 165.54849 36871 ft 463 kts 51°
2026-04-21 16:07 7.24197 165.60063 36867 ft 463 kts 51°
2026-04-21 16:07 7.28032 165.65280 36867 ft 463 kts 51°
2026-04-21 16:08 7.33781 165.73106 36867 ft 463 kts 51°
2026-04-21 16:09 7.37615 165.78328 36865 ft 463 kts 52°
2026-04-21 16:09 7.41451 165.83553 36877 ft 464 kts 52°
2026-04-21 16:10 7.45289 165.88782 36874 ft 464 kts 52°
2026-04-21 16:10 7.47207 165.91396 36743 ft 464 kts 52°
2026-04-21 16:10 7.49123 165.94009 36513 ft 463 kts 52°
2026-04-21 16:10 7.51035 165.96616 36267 ft 463 kts 52°
2026-04-21 16:11 7.52950 165.99227 36024 ft 463 kts 52°
2026-04-21 16:11 7.54861 166.01834 35785 ft 463 kts 52°
2026-04-21 16:11 7.56767 166.04434 35038 ft 462 kts 52°
2026-04-21 16:11 7.58700 166.07071 33920 ft 473 kts 52°
2026-04-21 16:12 7.59999 166.08845 33304 ft 475 kts 52°
2026-04-21 16:12 7.62610 166.12408 32376 ft 471 kts 52°
2026-04-21 16:12 7.64531 166.15031 31518 ft 473 kts 53°
2026-04-21 16:12 7.66482 166.17695 30767 ft 472 kts 53°
2026-04-21 16:13 7.68423 166.20345 30158 ft 468 kts 53°
2026-04-21 16:13 7.70347 166.22973 29522 ft 463 kts 53°
2026-04-21 16:13 7.72253 166.25576 28840 ft 460 kts 53°
2026-04-21 16:13 7.74144 166.28159 28257 ft 455 kts 53°
2026-04-21 16:14 7.76008 166.30707 27690 ft 450 kts 53°
2026-04-21 16:14 7.77859 166.33237 27098 ft 446 kts 53°
2026-04-21 16:14 7.79694 166.35744 26497 ft 443 kts 53°
2026-04-21 16:14 7.81518 166.38239 25905 ft 441 kts 53°
2026-04-21 16:15 7.83334 166.40722 25319 ft 438 kts 53°
2026-04-21 16:15 7.85139 166.43191 24728 ft 436 kts 54°
2026-04-21 16:15 7.86936 166.45649 24150 ft 435 kts 54°
2026-04-21 16:15 7.88729 166.48102 23571 ft 433 kts 54°
2026-04-21 16:16 7.90516 166.50547 22904 ft 432 kts 54°
2026-04-21 16:16 7.92292 166.52977 22303 ft 429 kts 54°
2026-04-21 16:16 7.94057 166.55392 21738 ft 426 kts 54°
2026-04-21 16:16 7.95781 166.57753 21196 ft 422 kts 54°
2026-04-21 16:17 7.96956 166.59361 20831 ft 420 kts 54°
2026-04-21 16:17 7.99236 166.62484 20125 ft 416 kts 54°
2026-04-21 16:17 8.00946 166.64827 19601 ft 413 kts 54°
2026-04-21 16:17 8.02646 166.67155 19082 ft 411 kts 54°
2026-04-21 16:18 8.04334 166.69469 18570 ft 407 kts 54°
2026-04-21 16:18 8.06004 166.71757 18061 ft 402 kts 54°
2026-04-21 16:18 8.07650 166.74012 17514 ft 396 kts 54°
2026-04-21 16:18 8.09269 166.76232 17017 ft 390 kts 54°
2026-04-21 16:19 8.10867 166.78423 16548 ft 386 kts 54°
2026-04-21 16:19 8.12453 166.80598 16089 ft 383 kts 54°
2026-04-21 16:19 8.14027 166.82756 15634 ft 381 kts 54°
2026-04-21 16:19 8.15592 166.84903 15177 ft 378 kts 54°
2026-04-21 16:20 8.17145 166.87033 14730 ft 376 kts 54°
2026-04-21 16:20 8.18691 166.89155 14283 ft 374 kts 54°
2026-04-21 16:20 8.20227 166.91263 13841 ft 372 kts 54°
2026-04-21 16:20 8.21755 166.93359 13358 ft 370 kts 54°
2026-04-21 16:21 8.23277 166.95448 12882 ft 368 kts 54°
2026-04-21 16:21 8.24784 166.97517 12436 ft 365 kts 54°
2026-04-21 16:21 8.26281 166.99572 12001 ft 362 kts 54°
2026-04-21 16:21 8.27764 167.01609 11566 ft 359 kts 54°
2026-04-21 16:22 8.29236 167.03631 11155 ft 356 kts 54°
2026-04-21 16:22 8.30685 167.05620 10943 ft 346 kts 54°
2026-04-21 16:22 8.32071 167.07525 10776 ft 336 kts 54°
2026-04-21 16:22 8.33436 167.09401 10622 ft 327 kts 54°
2026-04-21 16:23 8.34763 167.11224 10468 ft 317 kts 54°
2026-04-21 16:23 8.36051 167.12994 10311 ft 309 kts 54°
2026-04-21 16:23 8.37304 167.14717 10164 ft 300 kts 54°
2026-04-21 16:23 8.38523 167.16392 10017 ft 292 kts 54°
2026-04-21 16:24 8.39719 167.18036 9741 ft 290 kts 54°
2026-04-21 16:24 8.40910 167.19675 9391 ft 289 kts 54°
2026-04-21 16:24 8.42098 167.21308 9065 ft 288 kts 54°
2026-04-21 16:24 8.43281 167.22935 8745 ft 286 kts 54°
2026-04-21 16:25 8.44454 167.24549 8439 ft 284 kts 54°
2026-04-21 16:25 8.45621 167.26154 8136 ft 283 kts 54°
2026-04-21 16:25 8.46781 167.27751 7833 ft 281 kts 54°
2026-04-21 16:25 8.47936 167.29339 7532 ft 280 kts 54°
2026-04-21 16:26 8.49083 167.30917 7230 ft 278 kts 54°
2026-04-21 16:26 8.50224 167.32488 6935 ft 277 kts 54°
2026-04-21 16:26 8.51363 167.34054 6640 ft 276 kts 53°
2026-04-21 16:26 8.52495 167.35613 6342 ft 275 kts 53°
2026-04-21 16:27 8.53623 167.37167 6031 ft 274 kts 53°
2026-04-21 16:27 8.54748 167.38715 5719 ft 273 kts 53°
2026-04-21 16:27 8.55865 167.40254 5425 ft 271 kts 53°
2026-04-21 16:27 8.56978 167.41786 5139 ft 269 kts 53°
2026-04-21 16:28 8.58068 167.43288 4996 ft 261 kts 53°
2026-04-21 16:28 8.59125 167.44745 4867 ft 253 kts 53°
2026-04-21 16:28 8.60150 167.46156 4730 ft 245 kts 53°
2026-04-21 16:28 8.61143 167.47525 4597 ft 238 kts 53°
2026-04-21 16:29 8.61781 167.48403 4536 ft 231 kts 53°
2026-04-21 16:29 8.63021 167.50112 4365 ft 220 kts 53°
2026-04-21 16:29 8.63914 167.51343 4205 ft 214 kts 53°
2026-04-21 16:29 8.64756 167.52503 4100 ft 201 kts 53°
2026-04-21 16:30 8.65564 167.53616 3931 ft 192 kts 53°
2026-04-21 16:30 8.66271 167.54726 3714 ft 186 kts 67°
2026-04-21 16:30 8.66689 167.55960 3442 ft 185 kts 72°
2026-04-21 16:30 8.67076 167.57200 3151 ft 185 kts 72°
2026-04-21 16:31 8.67463 167.58445 2851 ft 185 kts 72°
2026-04-21 16:31 8.67718 167.59266 2671 ft 176 kts 72°
2026-04-21 16:31 8.68067 167.60395 2403 ft 163 kts 72°
2026-04-21 16:31 8.68389 167.61435 2233 ft 148 kts 72°
2026-04-21 16:32 8.68691 167.62410 2146 ft 144 kts 72°
2026-04-21 16:32 8.68989 167.63374 1984 ft 143 kts 72°
2026-04-21 16:32 8.69285 167.64331 1716 ft 142 kts 72°
2026-04-21 16:32 8.69569 167.65266 1335 ft 142 kts 73°
2026-04-21 16:33 8.69862 167.66230 1106 ft 142 kts 73°
2026-04-21 16:33 8.70148 167.67174 987 ft 143 kts 73°
2026-04-21 16:33 8.70446 167.68156 803 ft 143 kts 71°
2026-04-21 16:33 8.70750 167.69099 545 ft 145 kts 72°
2026-04-21 16:34 8.71060 167.70064 361 ft 143 kts 71°
2026-04-21 16:34 8.71360 167.71016 210 ft 142 kts 72°
2026-04-21 16:34 8.71644 167.71966 48 ft 141 kts 74°
2026-04-21 16:34 8.71924 167.72875 -41 ft 119 kts 73°
2026-04-21 16:35 8.72108 167.73476 -49 ft 72 kts 73°
2026-04-21 16:35 8.72232 167.73877 -38 ft 25 kts 72°
2026-04-21 16:35 8.72281 167.73982 -33 ft 11 kts 14°
2026-04-21 16:35 8.72366 167.73963 -37 ft 14 kts 342°
2026-04-21 16:36 8.72470 167.73933 -34 ft 17 kts 345°
2026-04-21 16:36 8.72560 167.73944 -37 ft 13 kts 66°
2026-04-21 16:36 8.72587 167.74038 -40 ft 12 kts 74°
2026-04-21 16:36 8.72592 167.74056 -38 ft 0 kts 75°